Independence, IA

6:45 PM CST on December 14, 2019 (GMT -0600)
Independence Municipal

Weather History for KIIB - November, 2019

Change the Weather History Date:

Friday, November 15, 2019

  Actual Average Record
Temperature  
Mean Temperature 28 °F -  
Max Temperature 45 °F 41 °F 71 °F (1950)
Min Temperature 12 °F 21 °F 1 °F (1959)
Degree Days  
Heating Degree Days 36    
Moisture  
Dew Point 23 °F    
Average Humidity 83    
Maximum Humidity 95    
Minimum Humidity 58    
Precipitation  
Precipitation 0.00 in - - ()
Sea Level Pressure  
Sea Level Pressure 30.33 in    
Wind  
Wind Speed 3 mph ()    
Max Wind Speed 9 mph    
Max Gust Speed -    
Visibility 7.8 miles    
Events      
Averages and records for this station are not official NWS values.
T = Trace of Precipitation, MM = Missing Value Source: Averaged Metar Reports

Daily Weather History Graph

Daily Weather History Graph

Search for Another Location

Airport or City:

Astronomy

Nov. 15, 2019 Rise Set
Actual Time 6:58 AM CST 4:45 PM CST
Civil Twilight 6:28 AM CST 5:15 PM CST
Nautical Twilight 5:54 AM CST 5:49 PM CST
Astronomical Twilight 5:20 AM CST 6:23 PM CST
Moon 7:19 PM CST 9:57 AM CST
Length of Visible Light 10h 47m
Length of Day
9h 47m
Waning Gibbous, 90% of the Moon is Illuminated
Nov 15
Waning Gibbous
Nov 19
Last Quarter
Nov 26
New
Dec 4
First Quarter
Dec 11
Full

Hourly Weather History & Observations

Time (CST) Temp. Windchill Dew Point Humidity Pressure Visibility Wind Dir Wind Speed Gust Speed Precip Events Conditions
12:15 AM 16.3 °F 9.2 °F 14.5 °F 93% 30.29 in 7.0 mi SSW 4.6 mph - N/A   Clear
12:35 AM 16.3 °F 9.2 °F 14.5 °F 93% 30.29 in 7.0 mi SSW 4.6 mph - N/A   Clear
12:55 AM 16.7 °F 8.3 °F 14.9 °F 93% 30.28 in 7.0 mi SW 5.8 mph - N/A   Clear
1:15 AM 17.2 °F 11.9 °F 15.4 °F 93% 30.28 in 7.0 mi SW 3.5 mph - N/A   Clear
1:35 AM 17.2 °F - 15.4 °F 93% 30.29 in 7.0 mi Calm Calm - N/A   Clear
1:55 AM 14.9 °F 9.2 °F 12.9 °F 92% 30.29 in 7.0 mi SSW 3.5 mph - N/A   Clear
2:35 AM 14.5 °F 8.8 °F 13.1 °F 94% 30.30 in 7.0 mi South 3.5 mph - N/A   Clear
2:55 AM 14.2 °F 8.4 °F 12.9 °F 95% 30.30 in 7.0 mi SSW 3.5 mph - N/A   Clear
3:15 AM 13.8 °F 8.0 °F 12.4 °F 94% 30.30 in 7.0 mi SSW 3.5 mph - N/A   Clear
3:35 AM 14.5 °F 8.8 °F 13.1 °F 94% 30.30 in 7.0 mi South 3.5 mph - N/A   Clear
3:55 AM 13.8 °F - 12.2 °F 93% 30.30 in 7.0 mi Calm Calm - N/A   Clear
4:15 AM 13.1 °F - 11.5 °F 93% 30.30 in 7.0 mi Calm Calm - N/A   Clear
4:35 AM 12.6 °F - 10.9 °F 93% 30.31 in 7.0 mi Calm Calm - N/A   Clear
4:55 AM 13.1 °F 7.1 °F 11.8 °F 95% 30.31 in 7.0 mi SSW 3.5 mph - N/A   Clear
5:15 AM 14.5 °F - 13.1 °F 94% 30.32 in 7.0 mi Calm Calm - N/A   Clear
5:35 AM 12.2 °F 6.1 °F 10.6 °F 93% 30.32 in 5.0 mi WSW 3.5 mph - N/A   Clear
5:55 AM 12.2 °F - 10.8 °F 94% 30.32 in 5.0 mi Calm Calm - N/A   Clear
6:15 AM 12.2 °F 6.1 °F 10.6 °F 93% 30.32 in 7.0 mi SW 3.5 mph - N/A   Clear
6:35 AM 14.4 °F 8.6 °F 13.1 °F 95% 30.32 in 5.0 mi SW 3.5 mph - N/A   Clear
6:55 AM 14.2 °F - 12.9 °F 95% 30.32 in 5.0 mi Calm Calm - N/A   Clear
7:15 AM 14.9 °F 9.2 °F 13.5 °F 94% 30.32 in 5.0 mi SW 3.5 mph - N/A   Clear
7:35 AM 17.4 °F - 15.6 °F 93% 30.33 in 5.0 mi Calm Calm - N/A   Clear
7:55 AM 19.0 °F - 16.7 °F 91% 30.34 in 7.0 mi Calm Calm - N/A   Clear
8:15 AM 21.7 °F - 18.3 °F 87% 30.34 in 7.0 mi Calm Calm - N/A   Clear
8:35 AM 23.4 °F - 19.2 °F 84% 30.35 in 7.0 mi Calm Calm - N/A   Clear
8:55 AM 25.9 °F 21.7 °F 20.8 °F 81% 30.35 in 7.0 mi West 3.5 mph - N/A   Clear
9:15 AM 28.8 °F - 22.8 °F 78% 30.35 in 10.0 mi Calm Calm - N/A   Clear
9:35 AM 30.9 °F - 23.0 °F 72% 30.35 in 10.0 mi Calm Calm - N/A   Clear
9:55 AM 33.1 °F - 24.6 °F 71% 30.36 in 10.0 mi Calm Calm - N/A   Clear
10:15 AM 35.1 °F - 25.2 °F 67% 30.36 in 10.0 mi Calm Calm - N/A   Clear
10:35 AM 37.4 °F - 25.5 °F 62% 30.36 in 10.0 mi Calm Calm - N/A   Clear
10:55 AM 37.9 °F - 26.2 °F 63% 30.36 in 10.0 mi Calm Calm - N/A   Clear
11:15 AM 38.7 °F - 26.4 °F 61% 30.36 in 10.0 mi Calm Calm - N/A   Clear
11:35 AM 39.7 °F - 27.3 °F 61% 30.35 in 10.0 mi Calm Calm - N/A   Clear
11:55 AM 41.0 °F - 27.7 °F 59% 30.34 in 10.0 mi Calm Calm - N/A   Clear
12:35 PM 42.4 °F 40.7 °F 28.6 °F 58% 30.34 in 10.0 mi East 3.5 mph - N/A   Clear
1:15 PM 42.3 °F - 29.8 °F 61% 30.33 in 10.0 mi Calm Calm - N/A   Clear
1:35 PM 42.3 °F - 30.9 °F 64% 30.33 in 10.0 mi Calm Calm - N/A   Clear
1:55 PM 45.1 °F - 31.3 °F 58% 30.33 in 10.0 mi Calm Calm - N/A   Clear
2:15 PM 44.6 °F - 32.0 °F 61% 30.32 in 10.0 mi Calm Calm - N/A   Clear
2:35 PM 44.6 °F - 32.0 °F 61% 30.32 in 10.0 mi Calm Calm - N/A   Clear
2:55 PM 45.7 °F - 32.0 °F 59% 30.32 in 10.0 mi Calm Calm - N/A   Clear
3:15 PM 45.1 °F 43.7 °F 32.0 °F 60% 30.32 in 10.0 mi SE 3.5 mph - N/A   Clear
3:35 PM 44.6 °F 43.1 °F 32.5 °F 63% 30.32 in 10.0 mi ESE 3.5 mph - N/A   Clear
4:15 PM 40.8 °F 36.9 °F 32.0 °F 71% 30.32 in 10.0 mi SE 5.8 mph - N/A   Clear
4:35 PM 38.1 °F 34.6 °F 30.9 °F 75% 30.32 in 10.0 mi SE 4.6 mph - N/A   Clear
4:55 PM 36.5 °F 31.8 °F 31.1 °F 81% 30.32 in 10.0 mi SE 5.8 mph - N/A   Clear
5:15 PM 35.4 °F 31.5 °F 30.7 °F 83% 30.32 in 10.0 mi SE 4.6 mph - N/A   Clear
5:35 PM 34.7 °F 30.6 °F 30.2 °F 84% 30.32 in 10.0 mi SE 4.6 mph - N/A   Clear
5:55 PM 34.3 °F 30.2 °F 30.6 °F 86% 30.32 in 10.0 mi SE 4.6 mph - N/A   Clear
6:15 PM 33.8 °F 29.6 °F 30.2 °F 87% 30.32 in 10.0 mi SE 4.6 mph - N/A   Clear
6:35 PM 34.0 °F 31.0 °F 30.6 °F 87% 30.33 in 7.0 mi SE 3.5 mph - N/A   Clear
7:15 PM 33.3 °F 27.1 °F 30.4 °F 89% 30.33 in 7.0 mi SE 6.9 mph - N/A   Clear
7:35 PM 33.8 °F 27.7 °F 30.6 °F 88% 30.33 in 10.0 mi SE 6.9 mph - N/A   Clear
7:55 PM 33.8 °F 28.6 °F 30.2 °F 87% 30.33 in 10.0 mi SE 5.8 mph - N/A   Clear
8:15 PM 33.8 °F 27.0 °F 30.2 °F 87% 30.33 in 7.0 mi ESE 8.1 mph - N/A   Clear
8:35 PM 32.4 °F 26.0 °F 29.7 °F 90% 30.34 in 7.0 mi ESE 6.9 mph - N/A   Clear
8:55 PM 32.0 °F 24.8 °F 29.8 °F 92% 30.34 in 7.0 mi ESE 8.1 mph - N/A   Clear
9:15 PM 32.0 °F 25.6 °F 30.0 °F 92% 30.34 in 7.0 mi ESE 6.9 mph - N/A   Clear
9:35 PM 32.0 °F 24.8 °F 29.7 °F 91% 30.34 in 7.0 mi SE 8.1 mph - N/A   Clear
9:55 PM 31.6 °F 24.4 °F 29.3 °F 91% 30.34 in 5.0 mi SE 8.1 mph - N/A   Clear
10:15 PM 31.1 °F 23.7 °F 29.3 °F 93% 30.35 in 5.0 mi ESE 8.1 mph - N/A   Clear
10:35 PM 30.9 °F 22.8 °F 28.9 °F 92% 30.35 in 5.0 mi ESE 9.2 mph - N/A   Clear
10:55 PM 30.7 °F 22.6 °F 28.8 °F 92% 30.34 in 5.0 mi SE 9.2 mph - N/A   Clear
11:15 PM 30.4 °F 22.9 °F 28.4 °F 92% 30.34 in 5.0 mi ESE 8.1 mph - N/A   Clear
11:35 PM 29.8 °F 22.2 °F 28.0 °F 93% 30.34 in 5.0 mi ESE 8.1 mph - N/A   Clear
11:55 PM 28.8 °F 22.6 °F 27.3 °F 94% 30.35 in 4.0 mi SE 5.8 mph - N/A   Clear